Reflectivity
3 9 -3 1 15 -1 24 -3 -19 -20 -20 -20 -11 15 -20 -20 -20 -20 -20 -20 -13 -20 -20 -20 -1 31 1 30 10 9 -3 -19 -16 3 4 -18 -20 -20 -19 -20 -19 -20 -20 -20
-1 10 3 -20 -20 -20 -20 -20 -20 23 -15 -20 -5 -19 -20 -20 -15 7 -20 -20 -19 -20 -20 -19 33 8 25 34 12 17 -7 -5 -9 -3 -19 17 -19 -18 -20 -20 -20 -20 -20 -20
9 9 -20 -20 -20 -20 -20 -20 -20 -20 -3 13 -4 -12 -20 -20 17 13 16 -20 -20 -20 -20 -14 -3 25 27 17 18 30 20 12 -10 2 6 -10 2 -20 -20 -20 -20 -20 -20 -20
-6 1 -20 -0 -19 -20 -20 -20 -20 -20 3 14 -20 -20 -20 -20 -7 15 17 -15 -20 -20 -20 -18 0 -0 25 35 29 28 37 30 30 11 11 -15 -20 -20 -20 -20 -20 -20 -20 -20
-20 -20 -20 -20 -19 -20 -20 -20 -20 -20 2 2 8 -14 -20 0 7 10 6 -20 -13 20 1 -20 -18 1 12 19 26 32 35 33 27 3 -8 -12 -20 -20 -20 -20 -20 -20 -20 -20
-20 -20 -20 -14 -20 -13 -20 -20 -18 -20 10 -19 -20 -20 -19 -6 -4 14 14 -20 -15 -3 29 -20 1 25 24 28 33 39 37 31 11 2 -1 -16 -4 1 -20 -20 -20 -20 -20 -20
-20 -15 -20 -14 -20 16 -6 1 -9 -1 8 -20 -20 -3 20 -10 -9 7 7 -18 8 -19 16 -4 2 32 27 31 34 32 24 -13 -15 -15 -6 -19 -10 -20 -20 -20 -19 -17 -20 -20
-19 -7 -20 -14 -19 2 19 -18 5 1 -7 -4 -20 -20 -6 -20 -3 0 7 6 12 -17 -2 21 7 14 27 31 28 26 13 -15 -10 -7 5 10 8 -6 -11 8 6 -20 -20 -20
9 -20 -20 -16 -20 -19 7 -20 -17 8 -4 -20 -20 -20 -20 -20 -19 -20 -20 -6 -2 3 -8 14 25 24 25 27 31 24 18 15 18 16 3 -8 -4 10 12 -2 -18 -20 -20 -20
-20 -20 -20 -20 -10 -12 -20 -20 -19 -3 -10 -20 -20 -20 -20 -20 -20 -20 -11 0 -1 -19 -18 8 20 28 26 27 30 26 13 -1 -10 -13 10 16 12 8 10 4 -17 -20 -20 -20
-20 -20 -20 -20 -12 -20 -20 -18 -20 -20 -20 -8 -6 -20 -20 -20 -20 -20 -20 -12 5 -11 -3 10 21 28 26 22 18 10 10 11 14 15 12 8 8 7 -2 -8 -16 -20 -20 -20
-20 -20 -20 -20 -20 -20 -12 -3 -20 -20 -20 -15 -18 -16 -20 -20 -20 -20 -20 -19 -2 11 13 22 25 25 25 24 30 22 20 17 12 3 5 10 8 -2 -13 -19 -20 -20 -20 -20
-20 -20 -20 -20 7 8 13 -19 -20 -20 -20 -20 -20 -20 -20 -20 -20 7 -18 4 5 20 25 24 22 10 12 16 13 12 11 10 11 13 11 2 -19 -20 -20 -20 -20 -20 -20 -20
-20 -20 -20 -3 8 13 -20 -20 -20 -20 -20 -20 -20 -15 -16 -3 9 17 19 20 19 4 5 8 16 10 8 9 4 3 11 14 12 9 -2 -13 -20 -20 -20 -20 -20 -20 -20 -20
5 -20 -14 11 5 14 -20 -15 -10 -8 -8 6 5 15 19 20 19 20 18 16 17 17 15 11 8 -1 0 10 15 14 14 14 8 -13 -20 -20 -20 -20 -20 -20 -20 -20 -20 -20
-0 -6 10 15 16 13 15 12 7 15 14 15 20 21 23 19 20 19 19 20 17 13 10 8 11 17 14 12 12 10 7 -8 -20 -20 -20 -20 -20 -20 -20 -20 -20 -20 -20 -20
9 19 19 17 17 16 13 12 9 12 14 15 19 19 17 17 18 17 13 9 6 12 15 11 -1 -5 -1 4 -1 -19 -20 -20 -20 -20 -20 -20 -20 -20 -20 -20 -20 -20 -20 -20
22 18 16 19 20 17 4 8 1 1 -5 3 0 8 11 15 17 18 17 13 8 5 2 0 3 3 -9 -20 -20 -20 -20 -20 -20 -20 -20 -20 -20 -20 -20 -20 -20 -20 -20 -20
19 13 13 12 11 -12 -20 -9 -7 -1 13 16 17 16 13 -1 -1 -6 -8 -11 -2 -4 -4 -4 -6 -16 -20 -20 -20 -20 -20 -20 -20 -20 -20 -20 -20 -20 -20 -20 -20 -20 -20 -20
20 21 20 19 12 10 6 8 7 -2 -1 5 10 -3 -5 -11 -9 1 -20 -20 -20 -20 -20 -20 -20 -20 -20 -20 -20 -20 -20 -20 -20 -20 -20 -20 -20 -20 -20 -20 -20 -20 -20 -20
13 13 13 10 -3 -10 -20 -20 -20 -20 -20 -15 -5 -6 -15 -7 -20 -20 -20 -20 -20 -20 -20 -20 -20 -20 -20 -20 -20 -20 -20 -20 -20 -20 -20 -20 -20 -20 -20 -20 -20 -20 -20 -20
6 0 -18 -19 -18 -20 -20 -20 -18 -19 -20 -20 -20 -17 -16 -20 -20 -20 -20 -20 -20 -20 -20 -20 -20 -20 -12 -20 -20 -20 -20 -20 -20 -20 -20 -20 -20 -20 -20 -20 -20 -20 -20 -20
-7 -20 -20 -20 -20 -20 -20 -20 -20 -20 -20 -20 -20 -20 -20 -20 -20 -20 -20 -20 -20 -7 -20 -20 -11 11 -13 -20 -20 -20 -20 -20 -20 -20 -20 -20 -20 -20 -20 -20 -20 -20 -20 -20
-20 -20 -20 -20 -20 -20 -20 -20 -20 -20 -20 -20 -20 -20 -20 -20 -20 -20 -20 -6 -9 -19 -20 -20 9 -19 -18 -20 -20 -20 -20 -20 -20 -20 -20 -20 -20 -20 -20 -20 -20 -20 -20 -20
-20 -20 -20 -20 -20 -20 -20 -20 -20 -20 -20 -20 -20 -20 -20 -20 -20 -20 -20 -20 -5 -20 -20 -13 -5 -19 -20 -20 -20 -20 -20 -20 -20 -20 -20 -20 -20 -20 -20 -20 -20 -20 -20 -20
-20 -20 -20 -20 -20 -20 -20 -20 -20 -20 -20 -20 -20 -20 -20 -20 -20 -20 -20 -20 -20 -20 -20 3 -20 -20 -20 -20 -20 -20 -20 -20 -20 -20 -20 -20 -20 -20 -20 -20 -20 -20 -20 -20
-20 -20 -20 -20 -20 -20 -13 -20 -20 -20 -20 -20 -20 -20 -20 -20 -20 -20 -20 -20 -20 -20 -20 -20 -20 -20 -20 -20 -20 -20 -20 -20 -20 -20 -20 -20 -20 -20 -20 -20 -20 -20 -20 -20
Wind_Speed
12 17 17 18 12 12 14 18 12 14 17 10 9 5 5 1 4 7 7 6 13 16 15 15 15 15 15 17 20 20 19 18 17 17 17 17 16 14 13 11 10 10 10 8
5 11 6 14 16 14 11 16 17 15 21 3 2 3 1 2 3 7 6 6 9 13 15 16 17 15 16 16 18 21 19 18 18 18 18 17 16 15 13 12 11 9 8 8
5 12 13 6 4 3 5 5 12 16 18 4 9 8 7 7 4 8 8 8 11 12 13 15 16 20 18 17 17 18 19 19 19 19 18 16 15 14 13 11 10 9 8 8
6 11 2 7 12 8 12 11 15 14 8 8 12 8 7 3 6 9 10 9 11 11 11 12 14 15 17 16 18 19 19 19 19 19 18 15 15 14 12 10 10 8 8 7
3 3 8 8 5 5 3 5 4 10 13 10 2 2 3 4 9 11 12 11 10 11 12 14 15 17 19 17 19 20 20 20 19 19 18 15 14 13 11 11 9 7 7 7
1 3 4 2 6 6 2 2 6 4 6 8 6 6 8 8 11 8 14 16 15 15 13 16 15 18 19 18 19 19 19 18 18 17 16 15 13 13 9 9 10 8 8 6
6 3 8 9 15 8 4 5 16 7 8 3 7 6 4 10 9 10 12 16 18 15 14 14 17 19 20 19 19 18 18 18 17 15 15 15 13 11 10 9 9 8 8 5
3 3 8 14 10 6 5 11 11 16 9 11 3 6 11 13 14 16 15 15 16 15 13 11 16 19 19 20 17 18 18 18 16 14 11 11 13 10 10 9 9 7 7 5
5 7 6 6 7 10 8 11 11 13 12 2 7 9 12 13 16 15 15 14 15 15 16 13 11 18 22 17 19 19 17 16 15 14 12 11 12 10 8 7 6 6 5 4
7 6 13 12 8 11 10 7 9 8 4 7 11 13 15 14 14 15 14 16 16 19 19 18 15 15 19 19 18 18 18 16 13 13 12 10 7 7 6 5 5 5 5 4
7 8 12 3 15 11 10 8 7 9 8 11 14 15 16 16 15 15 15 16 16 17 21 20 18 17 15 16 17 17 16 14 12 10 10 9 7 6 6 4 5 5 4 3
5 8 8 13 11 10 8 9 8 10 12 12 15 16 18 16 15 16 16 17 20 20 22 20 18 16 15 14 14 15 14 10 9 9 8 7 7 7 12 11 11 10 8 4
6 11 10 7 8 8 7 9 11 12 12 16 16 17 18 19 18 24 18 18 19 19 19 17 17 15 13 12 13 13 13 11 9 9 7 7 7 6 7 8 13 10 8 7
6 5 4 10 6 7 12 13 17 17 17 17 19 19 19 20 20 19 18 18 18 18 17 16 17 15 12 12 14 13 12 17 8 7 7 6 6 6 6 6 4 3 7 7
5 7 6 7 11 12 11 14 19 17 17 18 17 19 18 21 21 18 16 16 17 18 16 15 15 13 11 11 12 11 9 7 8 7 7 8 7 6 6 5 5 4 4 5
10 11 11 12 11 12 14 15 16 16 17 18 20 20 20 19 18 16 13 12 16 14 13 14 13 10 10 10 10 9 9 16 11 7 7 6 6 6 5 5 5 4 3 2
12 13 13 13 13 15 16 15 15 17 17 18 17 17 17 17 16 16 15 13 14 14 12 12 12 9 9 8 9 7 7 8 13 7 6 6 6 6 6 5 4 3 1 3
16 16 15 12 13 15 19 18 16 16 15 15 14 15 15 16 14 13 12 12 13 13 11 10 9 9 8 8 8 6 6 7 7 7 6 7 6 5 5 5 4 2 2 3
19 19 16 17 15 16 16 16 16 15 13 12 15 14 13 13 12 11 10 11 11 12 8 8 15 10 8 11 9 6 7 7 7 6 5 9 6 5 4 4 3 3 2 2
20 18 17 17 19 18 17 14 13 14 12 11 12 13 13 11 10 10 10 10 6 5 7 8 8 7 6 10 11 5 6 7 6 6 5 5 5 4 3 5 4 3 2 3
17 16 18 17 16 16 15 12 12 13 11 11 11 10 9 8 8 7 9 7 5 6 7 10 6 5 4 7 6 5 6 6 6 5 5 4 4 3 3 2 2 2 3 3
12 13 14 14 14 14 13 12 11 10 10 10 9 8 9 8 8 8 6 5 2 10 5 4 4 8 6 11 5 5 6 6 5 4 4 3 3 3 2 1 2 3 3 3
11 12 11 13 12 11 11 10 10 10 10 8 7 7 6 4 3 4 4 3 3 7 3 3 6 12 13 5 5 5 6 5 5 4 4 3 3 2 1 1 2 3 3 4
10 11 10 9 8 9 10 8 8 7 6 6 6 5 4 3 4 3 2 4 5 6 3 1 9 11 11 4 4 4 4 4 4 3 3 5 2 1 1 0 3 4 3 5
8 7 7 8 8 6 7 6 5 6 6 6 5 4 5 4 3 1 2 3 7 4 2 3 13 11 4 4 4 4 4 4 3 3 3 3 2 1 1 1 3 4 3 4
6 5 5 6 5 5 4 4 3 3 3 3 3 3 3 3 2 3 2 3 2 5 3 5 5 5 4 4 3 4 3 3 2 4 3 1 2 1 1 3 3 4 4 4
6 7 4 4 4 5 5 5 2 3 4 2 2 1 2 2 1 2 2 2 3 3 3 3 3 5 3 4 3 3 3 2 3 2 2 2 1 2 2 3 3 4 4 4
Wind_Direction
296 278 263 267 272 297 232 214 207 245 236 259 268 215 234 25 51 49 40 101 155 156 161 165 161 159 158 155 153 145 144 141 140 135 130 130 127 126 125 123 118 120 123 116
269 258 289 280 266 251 234 234 242 264 273 222 243 196 316 286 122 104 80 77 103 126 142 147 143 143 139 155 139 138 133 131 129 126 129 128 124 124 121 117 117 121 119 116
277 318 310 326 171 178 231 197 206 231 242 195 240 249 237 234 242 133 137 135 125 131 139 138 141 137 141 137 127 126 128 130 129 128 124 123 124 122 121 121 123 119 117 116
278 293 350 244 318 283 248 232 209 232 248 228 235 236 251 201 154 150 137 143 135 131 128 129 131 125 127 131 127 127 128 127 130 126 122 126 124 122 119 123 123 126 117 110
235 294 298 296 36 357 335 337 290 256 250 244 123 40 265 136 153 157 158 147 134 126 133 130 127 128 124 129 129 128 127 132 127 128 125 130 126 126 123 121 122 119 118 116
272 225 249 262 339 344 275 307 329 328 333 254 151 218 244 172 155 157 137 134 124 125 130 129 134 130 125 129 128 126 134 126 122 123 127 124 124 122 117 118 120 120 113 106
268 316 291 319 320 295 294 354 315 316 308 315 204 239 148 132 105 119 119 122 116 126 128 135 135 129 125 127 123 125 116 113 112 116 121 120 115 117 122 117 115 112 107 101
201 225 261 9 341 359 303 306 316 315 309 299 200 133 133 116 115 113 116 117 116 117 116 118 125 117 115 110 113 110 109 106 109 113 114 113 115 116 113 116 116 111 106 108
225 241 10 358 278 288 312 299 297 299 305 214 108 105 100 107 112 113 115 108 109 109 110 102 102 119 112 112 108 104 102 104 107 105 106 111 111 110 111 109 107 114 114 104
343 359 334 336 335 339 323 294 305 310 7 93 102 104 102 101 102 103 105 106 110 109 101 97 99 97 103 111 111 110 106 103 104 107 104 99 100 108 107 109 112 113 115 108
272 312 316 228 347 334 328 346 11 37 54 90 101 100 105 103 101 104 104 104 103 104 100 97 91 84 83 94 100 100 103 106 105 99 100 101 94 102 107 97 120 119 101 94
273 324 306 294 326 337 10 14 31 66 73 79 96 102 103 99 98 99 102 104 98 96 98 98 91 87 85 92 102 107 102 103 106 106 106 105 106 105 106 106 97 92 102 116
275 295 280 290 1 13 54 51 63 73 78 88 85 95 97 102 97 95 91 90 93 95 96 94 92 85 89 95 99 99 104 106 107 104 103 109 114 122 118 96 86 79 70 66
286 323 339 20 46 37 65 70 75 69 70 73 81 78 86 91 89 85 84 87 87 88 88 91 89 84 87 94 97 97 104 113 107 108 116 120 120 113 106 107 109 66 34 53
26 75 76 63 58 55 66 76 80 78 79 78 75 82 80 82 80 81 84 87 87 85 84 86 88 87 88 93 98 104 108 108 110 112 111 110 102 101 104 103 90 68 42 31
67 67 69 69 71 73 74 73 80 81 80 81 79 75 77 78 81 81 81 87 94 88 90 89 87 92 93 97 102 102 108 116 108 96 101 100 103 101 102 89 81 77 56 336
70 65 72 68 71 71 71 71 73 75 77 77 81 85 86 84 84 81 78 80 88 91 94 95 96 96 98 100 105 102 100 110 114 91 93 100 101 100 92 86 93 87 44 327
65 62 60 65 74 76 71 69 71 73 76 84 86 85 85 85 89 89 91 93 89 85 82 89 94 93 88 91 96 99 99 99 99 102 99 93 94 102 99 90 86 76 39 13
54 55 52 57 63 67 70 68 65 66 65 78 82 79 84 87 91 92 93 90 91 96 91 102 103 97 101 108 97 95 97 94 90 95 107 103 92 93 100 105 85 56 39 10
44 46 50 54 51 53 57 54 64 64 56 68 81 77 75 69 75 77 76 73 69 87 90 96 88 85 87 106 103 91 98 102 104 99 101 99 106 108 95 88 69 37 8 2
39 42 46 48 50 49 50 48 56 58 52 55 66 70 76 76 73 81 84 86 44 93 99 99 96 92 88 110 104 101 103 105 105 99 99 100 96 90 91 86 52 20 8 348
36 41 43 43 46 47 37 39 45 52 51 52 54 60 70 67 70 64 52 89 62 93 89 82 103 129 124 112 99 99 102 105 110 106 102 114 120 110 100 72 22 353 335 313
38 42 42 40 40 43 41 35 38 44 47 42 45 51 60 54 51 86 80 45 64 114 97 114 162 132 118 101 103 111 117 120 120 124 143 139 131 136 125 35 343 336 328 326
40 39 41 36 41 44 43 23 31 37 39 39 46 42 63 69 39 32 57 120 124 110 110 105 140 127 124 117 117 124 127 130 140 151 144 139 144 126 44 26 332 322 326 325
37 37 34 33 39 36 30 15 27 22 25 29 31 28 36 34 99 38 38 25 98 82 15 298 142 132 118 124 134 135 144 150 164 160 173 164 148 151 49 14 336 305 306 310
28 31 25 29 27 11 9 22 22 353 17 19 25 21 28 37 43 61 34 86 68 64 40 94 101 114 124 134 142 143 149 154 120 159 161 162 174 115 75 345 324 301 292 292
16 45 22 18 19 11 356 16 11 339 348 349 280 322 354 4 353 91 88 81 84 78 75 83 97 132 131 133 151 152 145 152 148 127 109 147 156 87 333 320 297 289 291 287